This is the latest recevied weather packets stored in our database for station/object WA0LM. If no packets are shown the sender has not sent any weather packets the latest 10 day(s).
| Time | Temp. | Humidity | Pressure | Rain* | Wind** | Luminosity | Snow |
|---|---|---|---|---|---|---|---|
| 1777567787 | 5.56° C | 55% | 1017.4 hPa | 0 mm | - | 839 W/m² | - |
| 1777567483 | 5.56° C | 54% | 1017.6 hPa | 0 mm | - | 230 W/m² | - |
| 1777567181 | 5.56° C | 57% | 1017.5 hPa | 0 mm | - | 402 W/m² | - |
| 1777566879 | 5.56° C | 55% | 1017.5 hPa | 0 mm | - | 800 W/m² | - |
| 1777566576 | 6.11° C | 57% | 1017.6 hPa | 0 mm | - | 773 W/m² | - |
| 1777566273 | 5° C | 60% | 1017.7 hPa | 0 mm | - | 727 W/m² | - |
| 1777565971 | 5° C | 56% | 1017.7 hPa | 0 mm | - | 711 W/m² | - |
| 1777565666 | 5° C | 59% | 1017.5 hPa | 0 mm | - | 691 W/m² | - |
| 1777565363 | 5° C | 56% | 1017.6 hPa | 0 mm | - | 686 W/m² | - |
| 1777565059 | 5.56° C | 61% | 1017.6 hPa | 0 mm | - | 655 W/m² | - |
| 1777564755 | 5° C | 56% | 1017.7 hPa | 0 mm | - | 601 W/m² | - |
| 1777564450 | 5° C | 59% | 1017.5 hPa | 0 mm | - | 570 W/m² | - |
| 1777564146 | 3.89° C | 57% | 1017.7 hPa | 0 mm | - | 588 W/m² | - |
| 1777563842 | 4.44° C | 58% | 1017.6 hPa | 0 mm | - | 628 W/m² | - |
| 1777563539 | 3.89° C | 60% | 1017.6 hPa | 0 mm | - | 617 W/m² | - |
| 1777563238 | 3.89° C | 62% | 1017.7 hPa | 0 mm | - | 606 W/m² | - |
| 1777562935 | 4.44° C | 60% | 1017.7 hPa | 0 mm | - | 593 W/m² | - |
| 1777562630 | 3.89° C | 61% | 1017.8 hPa | 0 mm | - | 583 W/m² | - |
| 1777562330 | 3.89° C | 60% | 1018 hPa | 0 mm | - | 570 W/m² | - |
| 1777562027 | 3.33° C | 62% | 1017.9 hPa | 0 mm | - | 559 W/m² | - |
| 1777561723 | 3.33° C | 63% | 1017.9 hPa | 0 mm | - | 548 W/m² | - |
| 1777561418 | 3.33° C | 60% | 1018 hPa | 0 mm | - | 535 W/m² | - |
| 1777561114 | 3.33° C | 60% | 1017.9 hPa | 0 mm | - | 523 W/m² | - |
| 1777560809 | 3.33° C | 63% | 1018.1 hPa | 0 mm | - | 510 W/m² | - |
| 1777560507 | 2.78° C | 59% | 1017.8 hPa | 0 mm | - | 497 W/m² | - |
* Rain latest hour (hover to see other rain measurements)
** Current wind speed in m/s (hover to see current wind gust speed)